Погода в Лапитосе

Кипр     35°20′20″N   33°10′46″E
темп.,
°C
ветер,
м/с
пор.,
м/с
влажн.,
%
обл.,
%
осадки,
мм/ч
давл.,
гПа
погр.,
м
6 мая, чт
чт600:00+20з51150100 0.0 1009189
03:00+18юз135187 0.0 100941
06:00+17св1272100 0.0 101034
09:00+23юв224791 0.0 1011371
12:00+26сз4441100 0.0 1010933
15:00+25зсз912435 0.0 1010665
18:00+24з1114375 0.0 1009611
21:00+22з8154534 0.0 1010398
7 мая, пт
пт700:00+18зсз47800 0.0 1012167
03:00+18з22801 0.0 101117
06:00+18всв22705 0.0 101211
09:00+23св34415 0.0 1013513
12:00+26ссв333319 0.0 1014966
15:00+28ссз44302 0.0 10131109
18:00+24зсз67475 0.0 1013414
21:00+19з22685 0.0 101427
8 мая, сб
сб800:00+19зюз337213 0.0 101427
03:00+18юз22702 0.0 101313
06:00+19юв335824 0.0 101311
09:00+25вюв33405 0.0 1014412
12:00+28с3233100 0.0 1014901
15:00+27сз4338100 0.0 1014624
18:00+25зсз4443100 0.0 1013395
21:00+23св2254100 0.0 101315
9 мая, вс
вс900:00+21в576128 0.0 1012112
03:00+20вюв5770100 0.0 101093
06:00+19юв226598 0.0 101113
09:00+25юв224084 0.0 1010193
12:00+31в542548 0.0 1009750
15:00+31ссв32280 0.0 1009910
18:00+27сз32370 0.0 1009358
21:00+22з33590 0.0 101027
10 мая, пн
пн1000:00+21з33520 0.0 101020
03:00+20зсз22560 0.0 101011
06:00+20в33600 0.0 101029
09:00+24всв45470 0.0 1011453
12:00+28всв65310 0.0 1010687
15:00+29всв54260 0.0 1009672
18:00+29ссв22280 0.0 1008676
21:00+21з22500 0.0 100922